Regional Weather Roundup
Issued by NWS

Home | Current Version | Previous Version | Text Only | Print | Product List | Glossary Off
Versions: 1 2 3 4 5 6 7 8 9 10 11 12 13 14 15 16 17 18 19 20 21 22 23 24 25 26 27 28 29 30 31 32 33 34 35 36 37 38 39 40 41 42 43 44 45 46 47 48 49 50

000
ASUS43 KMPX 230301
RWRMN
WEATHER ROUNDUP FOR MINNESOTA
NATIONAL WEATHER SERVICE TWIN CITIES/CHANHASSEN MN
1000 PM CDT WED OCT 22 2014


NOTE: "FAIR" INDICATES FEW OR NO CLOUDS BELOW 12,000 FEET WITH NO
SIGNIFICANT WEATHER AND/OR OBSTRUCTIONS TO VISIBILITY. N/A MEANS
CURRENT SKY AND/OR WEATHER CONDITIONS ARE NOT AVAILABLE.

MNZ060>063-068>070-230400-
   Twin Cities Metro

CITY           SKY/WX    TMP DP  RH WIND       PRES   REMARKS
TWIN CITIES    CLOUDY    55  40  56 SE12      30.06R
ST PAUL        MOCLDY    54  41  61 S10       30.07R
CRYSTAL        CLOUDY    57  40  52 SE15G22   30.03S
BLAINE         CLOUDY    57  41  54 SE15G23   30.04F
LAKEVILLE      MOCLDY    54  41  62 S9        30.06F
EDEN PRAIRIE   MOCLDY    56  41  57 S12       30.04S
SOUTH ST PAUL  MOCLDY    56  39  53 S7        30.07R
LAKE ELMO      MOCLDY    54  41  62 S10       30.08R
$$
MNZ001>005-007-008-013>017-022>024-027-028-230400-
   Northwest Minnesota

CITY           SKY/WX    TMP DP  RH WIND       PRES   REMARKS
BEMIDJI        DRIZZLE   53  47  78 S12       29.91F
HALLOCK        CLOUDY    54  52  94 S12       29.81S
ROSEAU         DRIZZLE   54  48  82 S9        29.84S
WARROAD        RAIN      52  48  87 S8        29.85F
THIEF RVR FALL CLOUDY    54  52  94 S9        29.87S
CROOKSTON      CLOUDY    54  52  94 S9        29.88R
FOSSTON        RAIN      52  52 100 S9        29.90S
DETROIT LAKES  CLOUDY    54  52  94 SW3       29.93S
MOORHEAD       CLOUDY    55  55 100 SW3       29.90F
PARK RAPIDS    LGT RAIN  52  48  86 S7        29.93S
MAHNOMEN       CLOUDY    54  53  97 S7        29.90S
$$
MNZ006-009>011-018-025>026-230400-
   North Central Minnesota

CITY           SKY/WX    TMP DP  RH WIND       PRES   REMARKS
BAUDETTE       CLOUDY    55  43  63 S15G22    29.89R
FLAG ISLAND    RAIN      52  46  82 S18       29.84R
INTL FALLS     CLOUDY    54  41  61 S12G20    29.93F
WASKISH        DRIZZLE   54  45  71 CALM      29.90S
BIG FORK       CLOUDY    54  41  62 S9G17     29.95F
LONGVILLE      LGT RAIN  54  43  66 SE10      29.95S
GRAND RAPIDS   CLOUDY    52  37  58 SE15      29.97F
CRANE LAKE     MOCLDY    50  37  62 S7        30.00F
ORR            CLOUDY    52  36  54 S12G17    29.95F
COOK           CLOUDY    52  37  58 S7        29.99F
WALKER         DRIZZLE   53  44  70 S13G18    29.93S
$$
MNZ012-019>021-037-230400-
   Northeast Minnesota

CITY           SKY/WX    TMP DP  RH WIND       PRES   REMARKS
DULUTH         CLOUDY    52  34  50 S10       30.03F
ELY            PTCLDY    45  36  70 S3        30.02F
HIBBING        CLOUDY    51  37  58 S7        30.00F
EVELETH        CLOUDY    46  36  66 SE8       30.02F
DULUTH HARBOR  MOCLDY    52  46  82 CALM      30.05F
TWO HARBORS    PTCLDY    46  30  53 CALM      30.04S
SILVER BAY     PTCLDY    45  39  81 CALM      30.05S
GRAND MARAIS     N/A     51  37  58 NE3       30.08F
G MARAIS ARPRT MOCLDY    45  30  57 S7        30.08S
$$
MNZ029>031-032-039>041-046>048-054>057-064-230400-
   West Central Minnesota

CITY           SKY/WX    TMP DP  RH WIND       PRES   REMARKS
FERGUS FALLS   CLOUDY    54  52  94 SW3       29.93S
WHEATON        CLOUDY    54  52  94 W3        29.95S
MORRIS         CLOUDY    57  55  94 W9        29.95R
ALEXANDRIA     LGT RAIN  54  54 100 S10       29.96R FOG
ELBOW LAKE     CLOUDY    54  53  97 SW6       29.94R
WADENA         HVY RAIN  52  50  93 S10       29.93S
GLENWOOD       LGT RAIN  54  52  94 S9        29.96R
APPLETON       CLOUDY    57  54  88 W9        29.96R
BENSON         DRIZZLE   57  57 100 W7        29.96R
ORTONVILLE     CLOUDY    55  52  88 NW3       29.95S
MADISON        CLOUDY    61  55  82 W5        29.97R
WILLMAR        LGT RAIN  57  48  72 S6        29.98S
$$
MNZ033>034-036-042>043-049>051-058-059-230400-
   Central Minnesota

CITY           SKY/WX    TMP DP  RH WIND       PRES   REMARKS
ST CLOUD       CLOUDY    58  43  57 S15       30.00R
SAUK CENTRE    DRIZZLE   54  50  86 S10       29.96S
PAYNESVILLE    LGT RAIN  54  46  73 SE12G18   29.98S
AITKIN         CLOUDY    55  43  62 S12G20    29.96F
PINE RIVER     CLOUDY    54  45  71 SE10      29.98S
BRAINERD       CLOUDY    54  42  64 S14       29.97F
STAPLES        CLOUDY    55  45  67 SE12G18   29.94S
LONG PRAIRIE   DRIZZLE   52  46  82 SE12      29.95F
LITTLE FALLS   CLOUDY    55  41  58 SE9G16    29.98R
LITCHFIELD     DRIZZLE   57  46  67 SE5       30.00S
BUFFALO        MOCLDY    56  41  57 SE12G17   30.03R
MAPLE LAKE     MOCLDY    56  45  64 SE7       30.02R
$$
MNZ037-044-045-052-053-230400-
   East Central Minnesota

CITY           SKY/WX    TMP DP  RH WIND       PRES   REMARKS
PRINCETON      MOCLDY    57  43  58 SE12      30.02S
MORA           MOCLDY    50  37  62 SE7       30.04F
CAMBRIDGE      MOCLDY    57  43  58 SE8       30.01F
RUSH CITY      MOCLDY    53  39  59 S6        30.05S
MOOSE LAKE     MOCLDY    50  37  62 S6        30.01F
HINCKLEY       FAIR      52  39  62 S8        30.05S
CLOQUET        CLOUDY    48  36  61 SE3       30.03F
MCGREGOR       MOCLDY    52  41  66 SE9       30.00F
$$
MNZ071>073-080-081-089-090-097-098-230400-
   Southwest Minnesota

CITY           SKY/WX    TMP DP  RH WIND       PRES   REMARKS
MONTEVIDEO     CLOUDY    59  57  94 W7        29.98R
GRANITE FALLS  LGT RAIN  58  58  97 S8        29.99R
CANBY          CLOUDY    56  54  91 W6        29.99R
MARSHALL       CLOUDY    59  54  82 W9        29.98R
REDWOOD FALLS  CLOUDY    57  52  83 S13       29.98S
OLIVIA         CLOUDY    57  48  72 S9        29.97S
PIPESTONE      CLOUDY    55  54  94 W6        30.01R
WINDOM         LGT RAIN  57  55  94 S12       30.01F
WORTHINGTON    CLOUDY    57  55  94 S12       30.03R
JACKSON        LGT RAIN  55  52  88 S9        30.05R
TRACY          CLOUDY    60  58  95 S12       29.99R
SLAYTON        DRIZZLE   58  57  99 S10       30.01S
$$
MNZ065>067-074>077-082>085-091>093-230400-
   South Central Minnesota

CITY           SKY/WX    TMP DP  RH WIND       PRES   REMARKS
MANKATO        MOCLDY    57  39  51 S15G22    30.04F
NEW ULM        CLOUDY    59  46  63 S15G25    30.00S
ST JAMES       CLOUDY    61  46  59 SE16G23   30.02S
FAIRMONT       CLOUDY    57  45  62 S20G25    30.04F
GLENCOE        CLOUDY    58  46  62 S8G18     30.01S
FARIBAULT      MOCLDY    55  43  62 S9        30.09R
OWATONNA       MOCLDY    55  39  54 S9        30.09R
WASECA         MOCLDY    54  37  54 S14       30.10R
ALBERT LEA     PTCLDY    55  41  58 S9        30.11R
$$
MNZ078>079-086>088-094>096-230400-
   Southeast Minnesota

CITY           SKY/WX    TMP DP  RH WIND       PRES   REMARKS
ROCHESTER      CLOUDY    53  38  56 S16       30.11S
STANTON        MOCLDY    56  40  54 SW10G17   30.08R
DODGE CENTER   CLOUDY    54  41  62 S18G25    30.08S
WINONA         MOCLDY    54  39  58 SE5       30.14S
AUSTIN         MOCLDY    54  39  58 S12G17    30.09F
PRESTON        CLOUDY    50  40  68 S12       30.14S
$$
ABBREVIATIONS USED IN REMARKS
   TC - TEMPERATURES IN CELSIUS
  WCI - WIND CHILL INDEX
   HX - HEAT INDEX
  VSB - VISIBILITY
$$



USA.gov is the U.S. government's official web portal to all federal, state and local government web resources and services.